Regional Weather Roundup
Issued by NWS

Home | Current Version | Previous Version | Graphics & Text | Print | Product List | Glossary Off
Versions: 1 2 3 4 5 6 7 8 9 10 11 12 13 14 15 16 17 18 19 20 21 22 23 24 25 26 27 28 29 30 31 32 33 34 35 36 37 38 39 40 41 42 43 44 45 46 47 48 49 50

000
ASUS43 KMKX 272100
RWRWI

WISCONSIN REGIONAL WEATHER ROUNDUP
NATIONAL WEATHER SERVICE MILWAUKEE/SULLIVAN WI
400 PM CDT SUN JUL 27 2014

NOTE: "FAIR" INDICATES FEW OR NO CLOUDS BELOW 12,000 FEET WITH NO
SIGNIFICANT WEATHER AND/OR OBSTRUCTIONS TO VISIBILITY.

WIZ001-002-006>008-014>016-023>028-272200-
NORTHWEST WISCONSIN

CITY           SKY/WX    TMP DP  RH WIND       PRES   REMARKS
SUPERIOR ARPT  CLOUDY    59  54  84 NE6       30.02R
ASHLAND        CLOUDY    60  53  77 NE10      30.01R
HAYWARD        CLOUDY    59  55  87 NE15      30.00R
SIREN          CLOUDY    70  57  63 NE14G21   29.97R
RICE LAKE      CLOUDY    70  58  66 N8        29.95R
LADYSMITH      PTSUNNY   68  58  71 N21G26    29.94R
EAU CLAIRE     NOT AVBL
MENOMONIE      MOCLDY    74  56  54 N16G25    29.91R
NEW RICHMOND   CLOUDY    67  61  80 NW12G18   29.96R
OSCEOLA        CLOUDY    66  64  93 NW7       29.98R
$$

WIZ003>005-009-010-017-018-272200-
NORTH CENTRAL WISCONSIN

CITY           SKY/WX    TMP DP  RH WIND       PRES   REMARKS
WOODRUFF       CLOUDY    65  57  73 N8G21     29.91R
RHINELANDER    CLOUDY    62  58  86 N9G22     29.88R
EAGLE RIVER    CLOUDY    59  57  92 N13G22    29.89R
LAND O LAKES   CLOUDY    58  55  89 N13G23    29.93R
PHILLIPS       CLOUDY    64  58  81 N10G16    29.90R
TOMAHAWK       CLOUDY    66  60  81 N12G18    29.87R
MEDFORD        LGT RAIN  67  58  72 N14       29.87R
MERRILL        CLOUDY    68  59  71 N14       29.84R
$$

WIZ029-030-035-036-043>047-272200-
CENTRAL WISCONSIN

CITY           SKY/WX    TMP DP  RH WIND       PRES   REMARKS
WAUSAU         PTSUNNY   71  60  68 N8G20     29.82R
MOSINEE        NOT AVBL
MARSHFIELD     PTSUNNY   73  63  70 N14G26    29.84R
STEVENS POINT  PTSUNNY   63  60  90 N7        29.82R
WAUPACA        CLOUDY    76  58  53 N13G21    29.78R
WAUTOMA        NOT AVBL
WISC RAPIDS    LGT RAIN  64  61  90 MISG      29.84R
CAMP DOUGLAS   NOT AVBL
$$

WIZ011>013-019>022-031-037>040-048>050-272200-
NORTHEAST WISCONSIN

CITY           SKY/WX    TMP DP  RH WIND       PRES   REMARKS
ANTIGO         PTSUNNY   66  58  75 N18G25    29.83R
STURGEON BAY   CLOUDY    64  61  88 N18       29.74R
GREEN BAY      LGT RAIN  67  62  84 N16       29.76R
MANITOWOC      NOT AVBL
APPLETON       PTSUNNY   72  57  60 NW16      29.77R
CLINTONVILLE   PTSUNNY   64  61  88 N8        29.78R
OSHKOSH        PTSUNNY   75  58  55 N13       29.75R
$$

WIZ032>034-041-042-053>061-272200-
SOUTHWEST WISCONSIN

CITY           SKY/WX    TMP DP  RH WIND       PRES   REMARKS
LA CROSSE      MOSUNNY   76  62  62 NW16      29.86R
SPARTA         MOSUNNY   74  57  53 W17G23    29.85R
VIROQUA        MOCLDY    71  56  60 NW16G30   29.87R
BOSCOBEL       MOSUNNY   80  57  45 W13G20    29.85R HX  80
PRAIRIE DU CHI PTSUNNY   77  53  43 W18       29.85S
PLATTEVILLE    FAIR      75  56  51 NW15G22   29.86R
$$

WIZ056-057-062-063-064-067-068-272200-
SOUTH CENTRAL WISCONSIN

CITY           SKY/WX    TMP DP  RH WIND       PRES   REMARKS
BARABOO/DELLS  LGT RAIN  68  59  73 NW9       29.81R
LONE ROCK      NOT AVBL
WATERTOWN      SUNNY     75  58  53 NW17G25   29.76S
MADISON        PTSUNNY   76  60  57 NW17G25   29.79S
MIDDLETON      FAIR      75  57  53 NW18G25   29.81R
MONROE         CLOUDY    73  55  53 NW16G26   29.81R
JANESVILLE     LGT RAIN  70  59  68 W17G29    29.79R FOG
$$

WIZ051-052-058>065-066-070>072-272200-
SOUTHEAST WISCONSIN

CITY           SKY/WX    TMP DP  RH WIND       PRES   REMARKS
MILWAUKEE      PTSUNNY   73  57  57 NW14      29.73S
WAUKESHA       MOSUNNY   72  57  60 NW16G23   29.76S
MILWAUKEE/TIMM PTSUNNY   73  57  56 NW14G21   29.74S
RACINE         CLOUDY    73  57  57 NW10G23   29.74S
BURLINGTON     MOSUNNY   74  55  51 NW22G30   29.75R
KENOSHA        PTSUNNY   74  60  61 NW13G24   29.74R
FOND DU LAC    LGT RAIN  68  61  78 N6        29.76R
SHEBOYGAN      LGT RAIN  62  58  86 N14G22    29.74R FOG
WEST BEND      LGT RAIN  66  59  77 NW7G20    29.73R
JUNEAU         PTSUNNY   71  55  58 W10G18    29.77R
$$

LSZ147-162-272200-
LAKE SUPERIOR

STATION/POSITION TIME  TEMP    WIND        PRES    WAVE
                       AIR SEA DIR/SP/G            HT/PER
                 (UTC) (F)     (DEG/KT/KT) (MB)    (FT/S)
W MID LAKE BUOY  1950   48 42   10/  8/  8 1014.1R   2/ 4
PORT WING        2000   63      50/ 18/ 22 1015.6R
SAXON HARBOR     2040           50/ 15/ 16 1015.2R
$$

LMZ867-665-643>646-272200-
LAKE MICHIGAN

STATION/POSITION TIME  TEMP    WIND        PRES    WAVE
                       AIR SEA DIR/SP/G            HT/PER
                 (UTC) (F)     (DEG/KT/KT) (MB)    (FT/S)
N MID LAKE BUOY  1950   60 56  360/ 12/ 14 1006.0R   2/ 3
NORTHPORT PIER   2000   64     360/ 18/ 20 1007.1R
KEWAUNEE LAKESHO 2000   58      10/  7/  9 1007.4R
SHEBOYGAN LAKESH 2000   75     290/  8/  9 1005.4F
PORT WASHINGTON  2040   74     280/  5/ 14 1006.8S
ATWATER BUOY     2000   60     280/  8     1007.5R
MILWAUKEE LAKESH 2000   69     310/  7/ 11   N/A
S MID LAKE BUOY  1950   68 66  310/  6/  6 1005.1S   0
KENOSHA   LAKESH 2000   78     300/ 24/ 28 1005.1R
$$

TC  - TEMPERATURE IN CELSIUS
VSB - VISIBILITY IN STATUTE MILES
WCI - WIND CHILL INDEX
HX  - HEAT INDEX




USA.gov is the U.S. government's official web portal to all federal, state and local government web resources and services.